Regional Weather Roundup
Issued by NWS

Home | Current Version | Previous Version | Text Only | Print | Product List | Glossary Off
Versions: 1 2 3 4 5 6 7 8 9 10 11 12 13 14 15 16 17 18 19 20 21 22 23 24 25 26 27 28 29 30 31 32 33 34 35 36 37 38 39 40 41 42 43 44 45 46 47 48 49 50

000
ASUS43 KIND 251209
RWRIN

WEATHER ROUNDUP FOR INDIANA
NATIONAL WEATHER SERVICE INDIANAPOLIS IN
700 AM EST SUN JAN 25 2015

NOTE: "FAIR" INDICATES FEW OR NO CLOUDS BELOW 12,000 FEET WITH NO
SIGNIFICANT WEATHER AND/OR OBSTRUCTIONS TO VISIBILITY.

* - STATION DOES NOT REPORT WEATHER SUCH AS PRECIPITATION OR FOG.

+ - STATION NOT QUALITY CONTROLLED BY THE NATIONAL WEATHER SERVICE.
    USE DATA WITH CAUTION...ESPECIALLY DEWPOINT AND RELATIVE
    HUMIDITY OBSERVATIONS.

INZ001>003-010>013-019-020-251300-
NORTHWEST INDIANA

CITY           SKY/WX    TMP DP  RH WIND       PRES   REMARKS
GARY /AIRPORT/ CLOUDY    36  30  80 NE13      29.70S FOG
KNOX *+        CLOUDY    33  29  85 NE8       29.68S WCI  27
LA PORTE +     CLOUDY    36  35  96 NE6       29.70S FOG
6HR MIN TEMP:  34; 6HR MAX TEMP:  36;

MICHIGAN CITY+ CLOUDY    32  32 100 NE5       29.71S FOG     WCI  27
MONTICELLO +   CLOUDY    33  32  95 E3        29.66R
RENSSELAER +   CLOUDY    32  32 100 NE7       29.67R FOG     WCI  26
VALPARAISO     CLOUDY    33  31  92 NE8       29.69S FOG     WCI  26
6HR MIN TEMP:  30; 6HR MAX TEMP:  33;


$$

LMZ046-743>745-251300-
SOUTHERN LAKE MICHIGAN

STATION/POSITION TIME  TEMP WIND        PRES
                       AIR  DIR/SP/G
                 (UTC) (F)  (DEG/KT/KT) (MB)
MICHIGAN CITY    1200   33   30/  7/  7   N/A

$$

INZ004-005-014>016-021>024-251300-
NORTH CENTRAL INDIANA

CITY           SKY/WX    TMP DP  RH WIND       PRES   REMARKS
GOSHEN         CLOUDY    35  33  92 E6        29.70R FOG     WCI  30
6HR MIN TEMP:  34; 6HR MAX TEMP:  36;

LOGANSPORT +   CLOUDY    32  32 100 E6        29.67S WCI  26
PERU/GRISSOM   CLOUDY    33  31  94 E6        29.66F WCI  27
6HR MIN TEMP:  30; 6HR MAX TEMP:  33;

ROCHESTER +    CLOUDY    34  34 100 NE3       29.69R FOG
SOUTH BEND     CLOUDY    35  31  85 NE5       29.72R FOG     WCI  31
6HR MIN TEMP:  34; 6HR MAX TEMP:  36;

WARSAW +       CLOUDY    34  32  93 NE5       29.69S FOG     WCI  30

$$

INZ006>009-017-018-025>027-251300-
NORTHEAST INDIANA

CITY           SKY/WX    TMP DP  RH WIND       PRES   REMARKS
ANGOLA *+      CLOUDY    34  25  69 E3        29.71R
AUBURN +       CLOUDY    34  32  93 CALM      29.71S FOG
FORT WAYNE     CLOUDY    33  31  92 E5        29.71R WCI  29
6HR MIN TEMP:  32; 6HR MAX TEMP:  35;

HUNTINGTON +   CLOUDY    32  28  86 CALM      29.69S
6HR MIN TEMP:  32; 6HR MAX TEMP:  35;


$$

INZ028-029-035-036-043>045-051>053-251300-
WEST CENTRAL INDIANA

CITY           SKY/WX    TMP DP  RH WIND       PRES   REMARKS
GREENCASTLE +  CLOUDY    36  30  80 S5        29.64F
LAFAYETTE      CLOUDY    32  30  92 NE5       29.65S WCI  27
6HR MIN TEMP:  30; 6HR MAX TEMP:  35;

TERRE HAUTE    CLOUDY    35  31  85 SE6       29.64F WCI  30
6HR MIN TEMP:  34; 6HR MAX TEMP:  37;


$$

INZ030>032-037>040-046>048-054>057-064-065-251300-
CENTRAL INDIANA

CITY           SKY/WX    TMP DP  RH WIND       PRES   REMARKS
CP ATTERBURY + CLOUDY    34  32  93 SE5       29.67F WCI  30
GREENWOOD *+   CLOUDY    34  28  80 SE6       29.67  WCI  29
INDIANAPOLIS   CLOUDY    32  30  92 SE6       29.65F WCI  26
6HR MIN TEMP:  31; 6HR MAX TEMP:  34;

-EAGLE CREEK   CLOUDY    34  30  85 SE5       29.66S WCI  30
6HR MIN TEMP:  32; 6HR MAX TEMP:  36;

KOKOMO *+      CLOUDY    34  30  86 E7        29.67S WCI  28
MARION +       CLOUDY    32  31  96 SE5       29.69S WCI  27
MT COMFORT *+  CLOUDY    34  28  80 S6        29.67S WCI  29
SHELBYVILLE    CLOUDY    36  30  79 S9        29.67F
6HR MIN TEMP:  35; 6HR MAX TEMP:  37;

ZIONSVILLE +   CLOUDY    34  30  85 SE5       29.66S WCI  30
6HR MIN TEMP:  33; 6HR MAX TEMP:  35;


$$

INZ033-034-041-042-049-050-058-059-251300-
EAST CENTRAL INDIANA

CITY           SKY/WX    TMP DP  RH WIND       PRES   REMARKS
MUNCIE         CLOUDY    33  30  88 SE6       29.68S WCI  28
6HR MIN TEMP:  33; 6HR MAX TEMP:  36;


$$

INZ060-061-067>069-081>083-085>088-251300-
SOUTHWEST INDIANA

CITY           SKY/WX    TMP DP  RH WIND       PRES   REMARKS
EVANSVILLE     CLOUDY    44  32  62 SW8       29.69S
6HR MIN TEMP:  41; 6HR MAX TEMP:  44;

HUNTINGBURG *+ CLOUDY    39  30  70 S6        29.69S
6HR MIN TEMP:  37; 6HR MAX TEMP:  39;

WASHINGTON +   CLOUDY    37  29  73 SE3       29.66F
6HR MIN TEMP:  37; 6HR MAX TEMP:  40;


$$

INZ062-063-066-070>080-084-089>092-251300-
SOUTH CENTRAL AND SOUTHEAST INDIANA

CITY           SKY/WX    TMP DP  RH WIND       PRES   REMARKS
BLOOMINGTON    CLOUDY    37  31  78 SE5       29.65F
6HR MIN TEMP:  35; 6HR MAX TEMP:  40;


$$




USA.gov is the U.S. government's official web portal to all federal, state and local government web resources and services.